Location: Newark
(44.5425°N, 10.7801°E)
Time: 20:50:53
(UTC+00:00)

N. Korean satellite - Pass Details

Date: 27 January 2020
Orbit: 456 x 505 km, 97.2° (Epoch: 22 February)

Event Time Altitude Azimuth Distance (km) Brightness Sun altitude
Rises 17:02:16 0° 199° (SSW) 2,460 10.7 -8.2°
Reaches altitude 10° 17:04:41 10° 216° (SW) 1,593 10.1 -8.6°
Maximum altitude 17:07:16 20° 266° (W) 1,115 9.6 -9.0°
Drops below altitude 10° 17:09:53 10° 316° (NW) 1,610 9.6 -9.4°
Sets 17:12:20 0° 334° (NNW) 2,496 10.3 -9.9°
